Date String (YYYY-MM-DD hh:mm:ss) UTC,Instrument flags,Ambient pressure (hPa),Sample flow (lpm),Bypass flow (lpm),Sample temperature (°C),Ambient temperature (°C),ASC tube jacket temperature (°C),LED temperature (°C),Box temperature (°C),Sample RH (%),Span deviation,Mass concentration (μg/m³),Mass concentration (μg/m³),Mass concentration (μg/m³)
DateTimeUTC,F1_M11,P_M11,Q1_M11,Q2_M11,T1_M11,T2_M11,T3_M11,T4_M11,T5_M11,U1_M11,ZSPAN_M11,X2_M11,X0_M11,X1_M11
2022-03-27 10:00:00,,0824.0,5.02,0.00,28.3,27.2,00.0,37.4,30.1,12.7,0000.0,0004.56,0017.12,0003.55
2022-03-27 10:01:00,,0824.0,5.00,0.00,28.3,27.2,00.0,37.4,30.1,12.7,0000.0,0004.58,0016.89,0003.55
2022-03-27 10:02:00,,0824.1,4.99,0.00,28.3,27.1,00.0,37.3,30.1,12.7,0000.0,0004.57,0016.36,0003.55
2022-03-27 10:03:00,,0824.1,5.01,0.00,28.3,27.2,00.0,37.3,30.1,12.7,0000.0,0004.52,0015.64,0003.55
2022-03-27 10:04:00,,0824.0,5.00,0.00,28.3,27.1,00.0,37.3,30.0,12.7,0000.0,0004.55,0015.12,0003.56
2022-03-27 10:05:00,,0824.1,4.99,0.00,28.3,27.1,00.0,37.3,30.0,12.7,0000.0,0004.64,0015.07,0003.57
2022-03-27 10:06:00,,0824.1,4.99,0.00,28.3,27.1,00.0,37.3,30.0,12.7,0000.0,0004.68,0014.29,0003.56
2022-03-27 10:07:00,,0824.1,5.00,0.00,28.3,27.2,00.0,37.3,30.0,12.7,0000.0,0004.75,0014.13,0003.55
2022-03-27 10:08:00,,0824.1,5.00,0.00,28.3,27.2,00.0,37.3,30.0,12.7,0000.0,0004.78,0014.28,0003.55
2022-03-27 10:09:00,,0824.1,5.00,0.00,28.3,27.1,00.0,37.3,30.0,12.7,0000.0,0004.81,0014.78,0003.56
2022-03-27 10:10:00,,0824.1,5.00,0.00,28.3,27.1,00.0,37.3,30.0,12.7,0000.0,0004.81,0014.36,0003.57
2022-03-27 10:11:00,,0824.0,5.01,0.00,28.2,27.1,00.0,37.3,30.0,12.7,0000.0,0004.83,0014.58,0003.58
2022-03-27 10:12:00,,0824.0,4.99,0.00,28.2,27.1,00.0,37.3,30.0,12.7,0000.0,0004.82,0014.55,0003.59
2022-03-27 10:13:00,,0824.0,4.99,0.00,28.2,27.0,00.0,37.3,29.9,12.7,0000.0,0004.86,0014.33,0003.60
2022-03-27 10:14:00,,0824.0,4.99,0.00,28.2,27.0,00.0,37.2,29.9,12.7,0000.0,0004.85,0014.49,0003.60
2022-03-27 10:15:00,,0824.0,5.00,0.00,28.2,27.0,00.0,37.2,29.9,12.7,0000.0,0004.83,0015.17,0003.60
2022-03-27 10:16:00,,0824.0,5.02,0.00,28.1,26.9,00.0,37.2,29.8,12.7,0000.0,0004.81,0015.13,0003.60
2022-03-27 10:17:00,,0824.1,4.99,0.00,28.1,26.9,00.0,37.2,29.8,12.7,0000.0,0004.83,0014.99,0003.62
2022-03-27 10:18:00,,0824.1,4.99,0.00,28.1,26.9,00.0,37.2,29.8,12.7,0000.0,0004.80,0014.27,0003.63
2022-03-27 10:19:00,,0824.1,5.02,0.00,28.1,26.8,00.0,37.2,29.8,12.7,0000.0,0004.78,0014.68,0003.63
2022-03-27 10:20:00,,0824.0,5.00,0.00,28.1,26.8,00.0,37.1,29.8,12.8,0000.0,0004.71,0014.14,0003.63
2022-03-27 10:21:00,,0824.0,4.99,0.00,28.1,26.8,00.0,37.1,29.8,12.8,0000.0,0004.69,0014.24,0003.64
2022-03-27 10:22:00,,0824.0,5.00,0.00,28.1,26.8,00.0,37.1,29.8,12.8,0000.0,0004.74,0014.45,0003.65
2022-03-27 10:23:00,,0824.0,5.01,0.00,28.0,26.7,00.0,37.1,29.8,12.8,0000.0,0004.74,0013.52,0003.64
2022-03-27 10:24:00,,0824.1,4.98,0.00,28.0,26.7,00.0,37.1,29.7,12.8,0000.0,0004.70,0013.85,0003.64
2022-03-27 10:25:00,,0824.1,5.00,0.00,28.0,26.7,00.0,37.1,29.7,12.8,0000.0,0004.74,0013.75,0003.64
2022-03-27 10:26:00,,0824.1,5.01,0.00,28.0,26.6,00.0,37.0,29.7,12.8,0000.0,0004.75,0012.78,0003.64
2022-03-27 10:27:00,,0824.1,4.99,0.00,27.9,26.6,00.0,37.0,29.7,12.8,0000.0,0004.74,0012.08,0003.63
2022-03-27 10:28:00,,0824.1,4.99,0.00,27.9,26.7,00.0,37.0,29.7,12.8,0000.0,0004.69,0012.60,0003.61
2022-03-27 10:29:00,,0824.1,5.02,0.00,27.9,26.7,00.0,37.0,29.6,12.8,0000.0,0004.70,0013.02,0003.62
2022-03-27 10:30:00,,0824.0,5.00,0.00,27.9,26.6,00.0,37.0,29.6,12.9,0000.0,0004.72,0012.63,0003.63
2022-03-27 10:31:00,,0824.1,5.00,0.00,27.9,26.6,00.0,37.0,29.6,12.9,0000.0,0004.72,0012.58,0003.62
2022-03-27 10:32:00,,0824.1,4.99,0.00,27.8,26.5,00.0,36.9,29.6,12.9,0000.0,0004.75,0012.80,0003.63
2022-03-27 10:33:00,,0824.1,5.00,0.00,27.8,26.5,00.0,36.9,29.5,12.9,0000.0,0004.76,0012.66,0003.63
2022-03-27 10:34:00,,0824.1,5.01,0.00,27.8,26.5,00.0,36.9,29.5,12.9,0000.0,0004.76,0013.35,0003.64
2022-03-27 10:35:00,,0824.1,4.99,0.00,27.8,26.5,00.0,36.9,29.5,12.9,0000.0,0004.78,0012.98,0003.64
2022-03-27 10:36:00,,0824.1,4.99,0.00,27.8,26.5,00.0,36.9,29.5,13.0,0000.0,0004.78,0013.76,0003.65
2022-03-27 10:37:00,,0824.1,5.00,0.00,27.7,26.5,00.0,36.9,29.4,13.0,0000.0,0004.79,0014.02,0003.65
2022-03-27 10:38:00,,0824.1,5.01,0.00,27.7,26.4,00.0,36.8,29.4,13.0,0000.0,0004.76,0013.97,0003.66
2022-03-27 10:39:00,,0824.0,5.01,0.00,27.7,26.4,00.0,36.8,29.4,13.0,0000.0,0004.84,0013.62,0003.68
2022-03-27 10:40:00,,0824.0,5.01,0.00,27.7,26.5,00.0,36.8,29.4,13.0,0000.0,0004.84,0012.94,0003.68
2022-03-27 10:41:00,,0824.1,4.99,0.00,27.7,26.5,00.0,36.8,29.4,13.0,0000.0,0004.85,0012.53,0003.67
2022-03-27 10:42:00,,0824.1,4.99,0.00,27.7,26.5,00.0,36.8,29.4,13.0,0000.0,0004.91,0012.92,0003.68
2022-03-27 10:43:00,,0824.1,5.00,0.00,27.7,26.4,00.0,36.8,29.4,13.0,0000.0,0004.96,0013.72,0003.67
2022-03-27 10:44:00,,0824.1,5.00,0.00,27.7,26.5,00.0,36.8,29.4,13.0,0000.0,0004.94,0013.34,0003.67
2022-03-27 10:45:00,,0824.1,5.01,0.00,27.7,26.5,00.0,36.7,29.4,13.0,0000.0,0004.93,0012.49,0003.66
2022-03-27 10:46:00,,0824.1,4.99,0.00,27.7,26.5,00.0,36.7,29.4,13.0,0000.0,0004.94,0012.24,0003.67
2022-03-27 10:47:00,,0824.0,5.00,0.00,27.7,26.5,00.0,36.7,29.4,12.9,0000.0,0004.94,0011.53,0003.68
2022-03-27 10:48:00,,0824.1,5.01,0.00,27.6,26.5,00.0,36.7,29.4,12.9,0000.0,0004.90,0011.19,0003.70
2022-03-27 10:49:00,,0824.2,5.01,0.00,27.6,26.4,00.0,36.7,29.4,12.9,0000.0,0004.93,0012.15,0003.71
2022-03-27 10:50:00,,0824.2,5.00,0.00,27.6,26.4,00.0,36.7,29.4,12.9,0000.0,0004.86,0012.19,0003.71
2022-03-27 10:51:00,,0824.1,5.00,0.00,27.6,26.4,00.0,36.7,29.4,12.9,0000.0,0004.86,0012.20,0003.73
2022-03-27 10:52:00,,0824.1,5.00,0.00,27.6,26.4,00.0,36.7,29.3,12.9,0000.0,0004.87,0012.22,0003.75
2022-03-27 10:53:00,,0824.2,4.99,0.00,27.6,26.4,00.0,36.7,29.3,12.8,0000.0,0004.90,0012.97,0003.76
2022-03-27 10:54:00,,0824.1,5.00,0.00,27.6,26.4,00.0,36.6,29.3,12.8,0000.0,0004.85,0012.44,0003.77
2022-03-27 10:55:00,,0824.1,5.00,0.00,27.6,26.4,00.0,36.6,29.3,12.8,0000.0,0004.84,0012.48,0003.77
2022-03-27 10:56:00,,0824.1,5.01,0.00,27.6,26.3,00.0,36.6,29.3,12.8,0000.0,0004.81,0012.77,0003.78
2022-03-27 10:57:00,,0824.1,5.00,0.00,27.5,26.3,00.0,36.6,29.3,12.8,0000.0,0004.77,0014.41,0003.78
2022-03-27 10:58:00,,0824.1,5.00,0.00,27.5,26.3,00.0,36.6,29.3,12.7,0000.0,0004.81,0014.99,0003.77
2022-03-27 10:59:00,,0824.1,5.00,0.00,27.5,26.3,00.0,36.6,29.3,12.7,0000.0,0004.89,0015.27,0003.78
